Location: Berlin
(52.5170°N, 13.3889°E)
Time: 05:07:42
(UTC+01:00)

LES 1 - Visible Passes

Search period start: 22 March 2023 00:00
Search period end: 01 April 2023 01:00
Orbit: 2780 x 2807 km, 32.1° (Epoch: 21 March)

Date Brightness Start Highest point End Pass type
(mag) Time Alt. Az. Time Alt. Az. Time Alt. Az.
22 Mar 11.7 19:46:29 10° WSW 19:55:28 17° SW 20:04:30 10° S visible
23 Mar 11.8 20:05:56 10° WSW 20:12:42 14° SW 20:19:29 10° SSW visible
24 Mar 12.0 20:28:17 10° SW 20:29:52 10° SW 20:31:28 10° SW visible
28 Mar 11.9 19:57:35 10° WSW 20:04:29 14° SW 20:11:25 10° SSW visible
29 Mar 12.1 20:19:24 10° SW 20:21:40 10° SW 20:23:56 10° SW visible
